Truth Or Consequences, NM

10:28 AM MDT on May 27, 2017 (GMT -0600)
Truth Or Consequences Municipal

Weather History for KTCS - July, 2013

Change the Weather History Date:

Friday, July 5, 2013

  Actual Average Record
Temperature  
Mean Temperature 82 °F -  
Max Temperature 96 °F 94 °F 102 °F (2003)
Min Temperature 68 °F 66 °F 55 °F (2002)
Cooling Degree Days 17    
Month to date cooling degree days 64  
Year to date cooling degree days 844  
Since 1 June cooling degree days 596  
Growing Degree Days 32 (Base 50)    
Moisture  
Dew Point 48 °F    
Average Humidity 34    
Maximum Humidity 51    
Minimum Humidity 17    
Precipitation  
Precipitation 0.00 in - 0.27 in (2006)
Month to date precipitation 0.28  
Year to date precipitation 0.63  
Sea Level Pressure  
Sea Level Pressure 29.70 in    
Wind  
Wind Speed 8 mph (WNW)    
Max Wind Speed 25 mph    
Max Gust Speed 35 mph    
Visibility 10 miles    
Events      
T = Trace of Precipitation, MM = Missing Value Source: NWS Daily Summary

Daily Weather History Graph

Daily Weather History Graph

Search for Another Location

Airport or City:

Trip Planner

Search our weather history database for the weather conditions in past years. The results will help you decide how hot, cold, wet, or windy it might be!

Date:

Astronomy

Jul. 05, 2013 Rise Set
Actual Time 6:05 AM MDT 8:21 PM MDT
Civil Twilight 5:36 AM MDT 8:50 PM MDT
Nautical Twilight 5:01 AM MDT 9:25 PM MDT
Astronomical Twilight 4:23 AM MDT 10:03 PM MDT
Moon 4:04 AM MDT (7/5) 6:21 PM MDT (7/5)
Length of Visible Light 15h 13m
Length of Day
14h 16m
Waning Crescent, 6% of the Moon is Illuminated
Jul 5
Waning Crescent
Jul 8
New
Jul 15
First Quarter
Jul 22
Full
Jul 29
Last Quarter

Hourly Weather History & Observations

Time (MDT) Temp. Dew Point Humidity Pressure Visibility Wind Dir Wind Speed Gust Speed Precip Events Conditions
12:53 AM 75.0 °F 50.0 °F 41% 29.73 in 10.0 mi NW 12.7 mph - N/A   Clear
1:53 AM 73.0 °F 51.1 °F 46% 29.74 in 10.0 mi WNW 13.8 mph - N/A   Clear
2:53 AM 72.0 °F 51.1 °F 48% 29.73 in 10.0 mi NW 9.2 mph - N/A   Clear
3:53 AM 71.1 °F 50.0 °F 47% 29.72 in 10.0 mi NW 6.9 mph - N/A   Clear
4:53 AM 70.0 °F 50.0 °F 49% 29.72 in 10.0 mi NW 5.8 mph - N/A   Clear
5:53 AM 69.1 °F 50.0 °F 51% 29.73 in 10.0 mi NW 9.2 mph - N/A   Clear
6:53 AM 70.0 °F 50.0 °F 49% 29.76 in 10.0 mi NW 6.9 mph - N/A   Clear
7:53 AM 75.0 °F 50.0 °F 41% 29.78 in 10.0 mi NW 4.6 mph - N/A   Clear
8:53 AM 79.0 °F 48.9 °F 35% 29.77 in 10.0 mi SSW 3.5 mph - N/A   Clear
9:53 AM 82.9 °F 48.9 °F 31% 29.76 in 10.0 mi South 8.1 mph - N/A   Clear
10:53 AM 86.0 °F 48.0 °F 27% 29.74 in 10.0 mi Variable 3.5 mph - N/A   Clear
11:53 AM 89.1 °F 46.9 °F 23% 29.72 in 10.0 mi SSW 6.9 mph - N/A   Clear
12:53 PM 91.9 °F 45.0 °F 20% 29.70 in 10.0 mi SE 5.8 mph 17.3 mph N/A   Clear
1:53 PM 95.0 °F 44.1 °F 17% 29.67 in 10.0 mi ESE 9.2 mph - N/A   Clear
2:53 PM 93.9 °F 42.1 °F 17% 29.64 in 10.0 mi Variable 3.5 mph 16.1 mph N/A   Clear
3:53 PM 93.0 °F 42.1 °F 17% 29.63 in 10.0 mi ESE 3.5 mph - N/A   Mostly Cloudy
4:53 PM 91.9 °F 48.0 °F 22% 29.62 in 10.0 mi WNW 21.9 mph 27.6 mph N/A   Mostly Cloudy
5:53 PM 88.0 °F 46.0 °F 23% 29.63 in 10.0 mi NW 19.6 mph 27.6 mph N/A   Clear
6:53 PM 84.9 °F 48.0 °F 28% 29.65 in 10.0 mi NW 19.6 mph 31.1 mph N/A   Partly Cloudy
7:53 PM 82.0 °F 48.0 °F 30% 29.66 in 10.0 mi NNW 13.8 mph 26.5 mph N/A   Mostly Cloudy
8:53 PM 82.9 °F 46.9 °F 28% 29.68 in 10.0 mi Calm Calm - N/A   Clear
9:53 PM 81.0 °F 48.9 °F 33% 29.69 in 10.0 mi Variable 4.6 mph - N/A   Clear
10:53 PM 79.0 °F 48.0 °F 34% 29.70 in 10.0 mi West 9.2 mph - N/A   Clear
11:53 PM 78.1 °F 48.0 °F 35% 29.70 in 10.0 mi West 3.5 mph - N/A   Clear